User: anonymous   Login
Location: Saddleback Butte
(34.6776°N, 117.8050°W)
Time: 06:23:23
(UTC-08:00)
Language:

Cosmos 1862 Rocket - Orbit

View from above orbital plane
View from above orbital plane
View from above satellite
View from above satellite

Ground track
Ground track

The orbit data is extracted from the following two-line orbital elements,

1 18153U 87055B   16341.86550495  .00000123  00000-0  12091-4 0  9993
2 18153  82.5005 285.0305 0021652   1.3485 358.7784 14.83151854589857
Epoch (UTC): 06 December 2016 20:46:19
Eccentricity: 0.0021652
inclination: 82.5005°
perigee height: 604 km
apogee height: 634 km
right ascension of ascending node: 285.0305°
argument of perigee: 1.3485°
revolutions per day: 14.83151854
mean anomaly at epoch: 358.7784°
orbit number at epoch: 58985

The dashed part of the orbit path shows where the satellite is in the earth's shadow,  

DLR